TimeEDT,TemperatureF,Dew PointF,Humidity,Sea Level PressureIn,VisibilityMPH,Wind Direction,Wind SpeedMPH,Gust SpeedMPH,PrecipitationIn,Events,Conditions,WindDirDegrees,DateUTC
12:15 AM,64.4,55.4,73,30.13,10.0,SSW,8.1,-,N/A,,Clear,200,2013-09-16 04:15:00
12:35 AM,64.4,55.4,73,30.13,10.0,SSW,5.8,-,N/A,,Clear,200,2013-09-16 04:35:00
12:55 AM,62.6,55.4,77,30.13,10.0,SSW,5.8,-,N/A,,Clear,200,2013-09-16 04:55:00
1:15 AM,64.4,57.2,77,30.13,10.0,South,9.2,-,N/A,,Clear,190,2013-09-16 05:15:00
1:35 AM,64.4,57.2,77,30.12,10.0,SSW,8.1,-,N/A,,Mostly Cloudy,200,2013-09-16 05:35:00
1:55 AM,64.4,57.2,77,30.12,10.0,SSW,6.9,-,N/A,,Scattered Clouds,200,2013-09-16 05:55:00
2:15 AM,64.4,57.2,77,30.12,10.0,SSW,8.1,-,N/A,,Mostly Cloudy,200,2013-09-16 06:15:00
2:35 AM,66.2,57.2,73,30.11,10.0,SSW,9.2,-,N/A,,Mostly Cloudy,200,2013-09-16 06:35:00
2:55 AM,66.2,57.2,73,30.10,10.0,South,8.1,-,N/A,,Scattered Clouds,190,2013-09-16 06:55:00
3:15 AM,66.2,57.2,73,30.10,10.0,South,9.2,-,N/A,,Scattered Clouds,190,2013-09-16 07:15:00
3:35 AM,66.2,57.2,73,30.09,10.0,South,8.1,-,N/A,,Mostly Cloudy,180,2013-09-16 07:35:00
3:55 AM,66.2,57.2,73,30.08,10.0,South,9.2,-,N/A,,Overcast,190,2013-09-16 07:55:00
4:15 AM,66.2,59.0,78,30.08,10.0,South,9.2,-,N/A,,Overcast,190,2013-09-16 08:15:00
4:35 AM,66.2,59.0,78,30.07,10.0,SSW,8.1,-,N/A,,Overcast,200,2013-09-16 08:35:00
4:55 AM,66.2,59.0,78,30.07,10.0,SSW,10.4,16.1,N/A,,Overcast,200,2013-09-16 08:55:00
5:15 AM,66.2,57.2,73,30.06,10.0,SSW,8.1,-,N/A,,Overcast,200,2013-09-16 09:15:00
5:35 AM,66.2,59.0,78,30.06,10.0,SSW,10.4,-,N/A,,Overcast,210,2013-09-16 09:35:00
5:55 AM,66.2,59.0,78,30.06,10.0,SSW,9.2,-,N/A,,Mostly Cloudy,210,2013-09-16 09:55:00
6:15 AM,66.2,59.0,78,30.06,10.0,SSW,10.4,-,N/A,,Overcast,210,2013-09-16 10:15:00
6:35 AM,66.2,60.8,83,30.06,10.0,SSW,11.5,-,N/A,,Overcast,210,2013-09-16 10:35:00
6:55 AM,66.2,60.8,83,30.06,10.0,SW,15.0,-,N/A,,Mostly Cloudy,220,2013-09-16 10:55:00
7:15 AM,68.0,60.8,78,30.07,10.0,SW,10.4,-,N/A,,Overcast,230,2013-09-16 11:15:00
7:35 AM,68.0,60.8,78,30.07,10.0,SW,11.5,-,N/A,,Overcast,230,2013-09-16 11:35:00
7:55 AM,68.0,60.8,78,30.07,10.0,WSW,13.8,-,N/A,,Overcast,240,2013-09-16 11:55:00
8:15 AM,69.8,60.8,73,30.07,10.0,WSW,10.4,17.3,N/A,,Mostly Cloudy,240,2013-09-16 12:15:00
8:35 AM,69.8,60.8,73,30.08,10.0,West,6.9,-,N/A,,Mostly Cloudy,280,2013-09-16 12:35:00
8:55 AM,69.8,60.8,73,30.08,10.0,West,6.9,-,N/A,,Mostly Cloudy,260,2013-09-16 12:55:00
9:15 AM,69.8,60.8,73,30.09,10.0,West,9.2,-,N/A,,Mostly Cloudy,270,2013-09-16 13:15:00
9:35 AM,71.6,60.8,69,30.09,10.0,WNW,10.4,-,N/A,,Partly Cloudy,290,2013-09-16 13:35:00
9:55 AM,71.6,60.8,69,30.10,10.0,WNW,9.2,-,N/A,,Partly Cloudy,290,2013-09-16 13:55:00
10:15 AM,71.6,60.8,69,30.09,10.0,WNW,6.9,-,N/A,,Clear,300,2013-09-16 14:15:00
10:35 AM,71.6,62.6,73,30.08,10.0,WNW,6.9,-,N/A,,Clear,300,2013-09-16 14:35:00
10:55 AM,71.6,60.8,69,30.08,10.0,WNW,9.2,-,N/A,,Clear,290,2013-09-16 14:55:00
11:15 AM,71.6,60.8,69,30.08,10.0,NW,5.8,-,N/A,,Clear,310,2013-09-16 15:15:00
11:35 AM,69.8,60.8,73,30.08,10.0,WNW,5.8,-,N/A,,Scattered Clouds,300,2013-09-16 15:35:00
11:55 AM,69.8,60.8,73,30.08,10.0,NNW,8.1,-,N/A,,Mostly Cloudy,340,2013-09-16 15:55:00
12:15 PM,66.2,60.8,83,30.10,10.0,NNW,10.4,-,N/A,,Overcast,340,2013-09-16 16:15:00
12:35 PM,66.2,59.0,78,30.10,10.0,North,9.2,-,N/A,,Mostly Cloudy,360,2013-09-16 16:35:00
12:55 PM,66.2,59.0,78,30.10,10.0,North,8.1,-,N/A,,Mostly Cloudy,350,2013-09-16 16:55:00
1:15 PM,64.4,57.2,77,30.10,10.0,North,10.4,-,N/A,,Overcast,360,2013-09-16 17:15:00
1:35 PM,64.4,55.4,73,30.09,10.0,North,9.2,-,N/A,,Overcast,10,2013-09-16 17:35:00
1:55 PM,64.4,57.2,77,30.09,10.0,NNE,5.8,-,N/A,,Overcast,30,2013-09-16 17:55:00
2:15 PM,64.4,57.2,77,30.09,10.0,North,5.8,-,N/A,,Overcast,360,2013-09-16 18:15:00
2:35 PM,66.2,57.2,73,30.09,10.0,North,5.8,-,N/A,,Overcast,360,2013-09-16 18:35:00
2:55 PM,66.2,57.2,73,30.09,10.0,NNW,8.1,-,N/A,,Overcast,340,2013-09-16 18:55:00
3:15 PM,66.2,57.2,73,30.09,10.0,North,8.1,-,N/A,,Overcast,10,2013-09-16 19:15:00
3:35 PM,68.0,57.2,68,30.09,10.0,NNW,5.8,-,N/A,,Overcast,340,2013-09-16 19:35:00
3:55 PM,68.0,57.2,68,30.09,10.0,NW,6.9,-,N/A,,Overcast,320,2013-09-16 19:55:00
4:15 PM,68.0,57.2,68,30.09,10.0,North,4.6,-,N/A,,Overcast,350,2013-09-16 20:15:00
4:35 PM,68.0,55.4,64,30.09,10.0,NNW,8.1,-,N/A,,Overcast,340,2013-09-16 20:35:00
4:55 PM,68.0,53.6,60,30.10,10.0,North,8.1,-,N/A,,Overcast,360,2013-09-16 20:55:00
5:15 PM,66.2,53.6,64,30.11,10.0,North,9.2,-,N/A,,Overcast,360,2013-09-16 21:15:00
5:35 PM,68.0,51.8,56,30.11,10.0,North,8.1,-,N/A,,Overcast,360,2013-09-16 21:35:00
5:55 PM,66.2,51.8,60,30.12,10.0,North,4.6,-,N/A,,Overcast,360,2013-09-16 21:55:00
6:15 PM,66.2,51.8,60,30.12,10.0,North,3.5,-,N/A,,Overcast,360,2013-09-16 22:15:00
6:35 PM,66.2,53.6,64,30.12,10.0,Calm,Calm,-,N/A,,Overcast,0,2013-09-16 22:35:00
6:55 PM,64.4,53.6,68,30.12,10.0,Calm,Calm,-,N/A,,Overcast,0,2013-09-16 22:55:00
7:15 PM,62.6,53.6,72,30.13,10.0,Calm,Calm,-,N/A,,Mostly Cloudy,0,2013-09-16 23:15:00
7:35 PM,60.8,53.6,77,30.13,10.0,Calm,Calm,-,N/A,,Partly Cloudy,0,2013-09-16 23:35:00
7:55 PM,60.8,53.6,77,30.14,7.0,Calm,Calm,-,N/A,,Partly Cloudy,0,2013-09-16 23:55:00
8:15 PM,59.0,53.6,82,30.14,10.0,Calm,Calm,-,N/A,,Scattered Clouds,0,2013-09-17 00:15:00
8:35 PM,57.2,51.8,82,30.15,10.0,Calm,Calm,-,N/A,,Scattered Clouds,0,2013-09-17 00:35:00
8:55 PM,57.2,51.8,82,30.16,10.0,Calm,Calm,-,N/A,,Clear,0,2013-09-17 00:55:00
9:15 PM,57.2,51.8,82,30.16,10.0,NNW,4.6,-,N/A,,Clear,340,2013-09-17 01:15:00
9:35 PM,57.2,51.8,82,30.17,10.0,NNW,3.5,-,N/A,,Clear,330,2013-09-17 01:35:00
9:55 PM,57.2,51.8,82,30.18,10.0,North,4.6,-,N/A,,Clear,350,2013-09-17 01:55:00
10:15 PM,59.0,53.6,82,30.18,10.0,NNW,4.6,-,N/A,,Clear,340,2013-09-17 02:15:00
10:35 PM,60.8,53.6,77,30.19,10.0,North,6.9,-,N/A,,Clear,360,2013-09-17 02:35:00
10:55 PM,62.6,51.8,68,30.20,10.0,North,9.2,-,N/A,,Clear,10,2013-09-17 02:55:00
11:15 PM,62.6,51.8,68,30.21,10.0,North,10.4,-,N/A,,Clear,360,2013-09-17 03:15:00
11:35 PM,60.8,51.8,72,30.21,10.0,North,10.4,-,N/A,,Clear,10,2013-09-17 03:35:00
11:55 PM,60.8,51.8,72,30.21,10.0,North,13.8,-,N/A,,Clear,10,2013-09-17 03:55:00